Location: Poughquag
(41.6090°N, 73.6820°W)
Time: 03:41:44
(UTC-04:00)

Transit 4A - Pass Details

Date: 06 June 2020
Orbit: 866 x 978 km, 66.8° (Epoch: 06 July)

Event Time Altitude Azimuth Distance (km) Brightness Sun altitude
Rises 02:26:45 0° 249° (WSW) 3,447 - -22.2°
Reaches altitude 10° 02:29:43 10° 263° (W) 2,521 - -21.9°
Exits shadow 02:30:33 13° 270° (W) 2,294 9.7 -21.9°
Maximum altitude 02:34:19 24° 316° (NW) 1,762 9.5 -21.6°
Drops below altitude 10° 02:39:02 10° 9° (N) 2,574 11.3 -21.2°
Sets 02:42:06 0° 23° (NNE) 3,538 12.5 -20.9°
